Home   Weather   Akron   Past weeks

Flag for USA Past Weather in Akron, Ohio, USA — Yesterday and Last 2 Weeks

Now
74 °F

Passing clouds.


Feels Like: 73 °F
Forecast: 69 / 83 °F
Wind: 9 mph from Southwest

Location: Akron Fulton International Airport

Current Time: Aug 18, 2017 at 3:04:04 am

Latest Report: Aug 18, 2017 at 2:09 am


Visibility: 10 mi

Pressure: 29.83 "Hg

Humidity: 88%

Dew Point: 70 °F

Location of AkronLocation

Past Weather in Akron — Graph

°F

Akron Temperature Yesterday

Maximum temperature yesterday: 89 °F (at 1:54 pm)
Minimum temperature yesterday: 69 °F (at 5:54 am)
Average temperature yesterday: 79 °F

High & Low Weather Summary for the Past Weeks

 TemperatureHumidityPressure
High89 °F (Aug 17, 1:54 pm)94% (Aug 12, 6:34 am)30.23 "Hg (Aug 12, 6:34 am)
Low55 °F (Aug 9, 6:54 am)31% (Aug 8, 3:54 pm)29.79 "Hg (Aug 17, 7:54 pm)
Average72 °F67%30.00 "Hg
* Reported Aug 3 1:54 am — Aug 18 1:54 am, Akron. Weather by CustomWeather, © 2017

Note: Actual official high and low records may vary slightly from our data, if they occured in-between our weather recording intervals... More about our weather records

Advertising

Akron Weather History for the Previous 24 Hours

Scroll right to see more
 ConditionsComfort  
Time TempWeatherWind HumidityBarometerVisibility
1:54 am
Fri, Aug 18
75 °FPassing clouds.8 mph85%29.80 "Hg10 mi
1:29 am75 °FPassing clouds.8 mph85%29.83 "Hg10 mi
12:54 am75 °FClear.12 mph85%29.81 "Hg10 mi
11:54 pm
Thu, Aug 17
76 °FPassing clouds.9 mph85%29.81 "Hg10 mi
10:54 pm77 °FClear.8 mph82%29.81 "Hg10 mi
9:54 pm78 °FPassing clouds.13 mph79%29.81 "Hg10 mi
8:54 pm80 °FPassing clouds.14 mph76%29.79 "Hg10 mi
7:54 pm82 °FSunny.13 mph72%29.79 "Hg10 mi
7:02 pm82 °FScattered clouds.15 mph72%29.82 "Hg10 mi
6:54 pm82 °FThundershowers. Broken clouds.15 mph74%29.80 "Hg10 mi
6:32 pm82 °FThundershowers. Broken clouds.16 mph72%29.82 "Hg6 mi
6:02 pm87 °FMostly cloudy.14 mph61%29.83 "Hg10 mi
5:16 pm87 °FThundershowers. Partly sunny.16 mph59%29.83 "Hg10 mi
4:54 pm87 °FBroken clouds.10 mph61%29.80 "Hg10 mi
3:54 pm87 °FPassing clouds.12 mph59%29.82 "Hg10 mi
2:54 pm88 °FPartly sunny.14 mph57%29.85 "Hg10 mi
1:54 pm89 °FPassing clouds.16 mph55%29.86 "Hg10 mi
12:54 pm85 °FPassing clouds.14 mph61%29.90 "Hg10 mi
11:54 am82 °FPartly sunny.12 mph67%29.90 "Hg10 mi
10:54 am82 °FPassing clouds.9 mph67%29.93 "Hg10 mi
9:54 am80 °FSunny.10 mph69%29.94 "Hg10 mi
8:54 am77 °FSunny.7 mph71%29.96 "Hg10 mi
7:54 am72 °FOvercast.3 mph76%29.96 "Hg10 mi
6:54 am69 °FSunny.No wind76%29.96 "Hg10 mi
5:54 am69 °FClear.No wind73%29.95 "Hg10 mi
4:54 am70 °FClear.No wind71%29.95 "Hg10 mi
3:54 am72 °FPassing clouds.3 mph66%29.96 "Hg10 mi
Weather by CustomWeather, © 2017

See weather overviewHow to use our weather pages